Regional Weather Roundup
Issued by NWS

Home | Current Version | Previous Version | Graphics & Text | Print | Product List | Glossary On
Versions: 1 2 3 4 5 6 7 8 9 10 11 12 13 14 15 16 17 18 19 20 21 22 23 24 25 26 27 28 29 30 31 32 33 34 35 36 37 38 39 40 41 42 43 44 45 46 47 48 49 50
000
ASUS43 KTOP 231108
RWRKS

WEATHER ROUNDUP FOR KANSAS
NATIONAL WEATHER SERVICE GOODLAND KS
600 AM CDT SAT MAY 23 2015

NOTE:  "FAIR" INDICATES FEW OR NO CLOUDS BELOW 12,000 FEET WITH NO
SIGNIFICANT WEATHER AND/OR OBSTRUCTIONS TO VISIBILITY.

KSZ001>006-013>018-027>032-041>047-231200-
NORTHWEST KANSAS

CITY           SKY/WX    TMP DP  RH WIND       PRES   REMARKS
GOODLAND       CLOUDY    53  52  96 SE16G25   30.04F
HAYS           CLOUDY    54  46  76 S15       30.12R
HILL CITY      CLOUDY    54  52  93 SE7       30.12R
RUSSELL        CLOUDY    54  53  97 S13       30.11R
$$

KSZ061>065-074>080-084>089-231200-
SOUTHWEST KANSAS

CITY           SKY/WX    TMP DP  RH WIND       PRES   REMARKS
DODGE CITY     CLOUDY    53  51  93 SE14      30.06F
ELKHART          N/A     56  54  94 S5          N/A
GARDEN CITY    CLOUDY    52  52 100 E12       30.03F FOG
GREAT BEND     CLOUDY    54  50  87 SE10      30.13S
LIBERAL        CLOUDY    57  52  82 E14       30.04R
PRATT          RAIN      52  52 100 E8        30.13F
$$

KSZ066>073-081>083-090>101-231200-
SOUTHEAST KANSAS

CITY           SKY/WX    TMP DP  RH WIND       PRES   REMARKS
CHANUTE        CLOUDY    57  56  96 SE6       30.20S FOG
COFFEYVILLE    CLOUDY    57  56  96 E5        30.20R
HUTCHINSON     CLOUDY    56  53  90 SE12      30.15S FOG
MEDICINE LODGE   N/A     55  55 100 E6        30.10F
NEWTON         CLOUDY    54  50  87 SE8       30.18S
PARSONS        CLOUDY    57  57 100 VRB3      30.21S
WICHITA INTL   CLOUDY    56  55  97 SE6       30.15S FOG
WICHITA JABRA  CLOUDY    55  54  96 E6        30.16R FOG
WICHITA MCCONL CLOUDY    55  55 100 E6        30.16R
WINFIELD       CLOUDY    57  56  96 E6        30.16S FOG
$$

KSZ007>012-019>026-033>040-048>060-102>105-231200-
NORTHEAST KANSAS

CITY           SKY/WX    TMP DP  RH WIND       PRES   REMARKS
CONCORDIA      CLOUDY    53  51  93 SE6       30.15R
EMPORIA        CLOUDY    56  55  97 S8        30.19R
LAWRENCE       CLOUDY    59  52  77 SE7       30.20S
MANHATTAN      CLOUDY    57  55  93 SE5       30.16S
MARYSVILLE     CLOUDY    54  52  94 SE7       30.17R
OLATHE IND     CLOUDY    56  53  90 SE6       30.21S
OLATHE EXE     LGT RAIN  56  53  90 S7        30.21R FOG
SALINA         CLOUDY    56  53  90 S9        30.16R
TOPEKA BILLARD CLOUDY    58  53  84 SE6       30.19S
TOPEKA FORBES  CLOUDY    58  53  84 SE6       30.18F
$$



USA.gov is the U.S. government's official web portal to all federal, state and local government web resources and services.